N337B KEYW-KISM

Flight info

Callsign N337B
Flight time 1h 30m
Altitude 7500
Route KEYW EYW CARNU DEEDS ZAGPO DIDDY BAIRN KISM
Aircraft C337/L-V/N

Departure

Time 2026-05-05 18:50
Airport Key West International Airport (KEYW)

Arrival

Time 2026-05-05 20:20
Airport Kissimmee Gateway Airport (KISM)
Time Latitude Longitude Altitude Speed Heading
2026-05-05 18:43 24.55485 -81.76200 4 ft 0 kts 181°
2026-05-05 18:46 24.55501 -81.76197 4 ft 11 kts 354°
2026-05-05 18:46 24.55525 -81.76123 3 ft 11 kts 91°
2026-05-05 18:46 24.55526 -81.76044 4 ft 9 kts 90°
2026-05-05 18:47 24.55527 -81.75976 6 ft 8 kts 90°
2026-05-05 18:47 24.55527 -81.75914 7 ft 8 kts 89°
2026-05-05 18:47 24.55528 -81.75852 8 ft 9 kts 90°
2026-05-05 18:47 24.55529 -81.75768 10 ft 13 kts 90°
2026-05-05 18:48 24.55530 -81.75651 10 ft 17 kts 90°
2026-05-05 18:48 24.55532 -81.75524 11 ft 16 kts 89°
2026-05-05 18:48 24.55531 -81.75415 11 ft 13 kts 88°
2026-05-05 18:48 24.55536 -81.75319 11 ft 13 kts 92°
2026-05-05 18:49 24.55549 -81.75258 10 ft 0 kts 17°
2026-05-05 18:49 24.55553 -81.75257 10 ft 5 kts 13°
2026-05-05 18:49 24.55620 -81.75268 9 ft 8 kts 281°
2026-05-05 18:49 24.55619 -81.75347 10 ft 26 kts 269°
2026-05-05 18:50 24.55618 -81.75789 44 ft 82 kts 270°
2026-05-05 18:50 24.55629 -81.76484 314 ft 95 kts 269°
2026-05-05 18:50 24.55662 -81.77210 619 ft 97 kts 270°
2026-05-05 18:50 24.55877 -81.77891 893 ft 100 kts 326°
2026-05-05 18:51 24.56556 -81.78047 1228 ft 97 kts 356°
2026-05-05 18:51 24.57241 -81.78061 1518 ft 99 kts
2026-05-05 18:51 24.57980 -81.78039 1779 ft 111 kts
2026-05-05 18:51 24.58749 -81.77998 2080 ft 108 kts
2026-05-05 18:52 24.59471 -81.77954 2394 ft 104 kts
2026-05-05 18:52 24.60204 -81.77904 2691 ft 106 kts
2026-05-05 18:52 24.60941 -81.77841 3010 ft 107 kts
2026-05-05 18:52 24.61641 -81.77591 3297 ft 111 kts 39°
2026-05-05 18:53 24.62211 -81.77005 3568 ft 113 kts 36°
2026-05-05 18:53 24.62821 -81.76461 3862 ft 113 kts 35°
2026-05-05 18:53 24.63438 -81.75919 4146 ft 114 kts 34°
2026-05-05 18:53 24.64065 -81.75375 4424 ft 116 kts 34°
2026-05-05 18:54 24.64702 -81.74826 4695 ft 117 kts 33°
2026-05-05 18:54 24.65344 -81.74274 4963 ft 118 kts 33°
2026-05-05 18:54 24.65984 -81.73726 5241 ft 118 kts 33°
2026-05-05 18:54 24.66635 -81.73169 5535 ft 119 kts 33°
2026-05-05 18:55 24.67290 -81.72607 5831 ft 120 kts 32°
2026-05-05 18:55 24.67947 -81.72045 6123 ft 120 kts 32°
2026-05-05 18:55 24.68609 -81.71478 6405 ft 121 kts 32°
2026-05-05 18:55 24.69276 -81.70907 6672 ft 122 kts 32°
2026-05-05 18:56 24.69946 -81.70333 6934 ft 123 kts 32°
2026-05-05 18:56 24.70621 -81.69755 7191 ft 123 kts 32°
2026-05-05 18:56 24.71297 -81.69177 7402 ft 128 kts 32°
2026-05-05 18:56 24.72036 -81.68546 7499 ft 142 kts 33°
2026-05-05 18:57 24.72859 -81.67841 7498 ft 157 kts 33°
2026-05-05 18:57 24.73747 -81.67079 7495 ft 166 kts 34°
2026-05-05 18:57 24.74674 -81.66282 7493 ft 171 kts 34°
2026-05-05 18:57 24.75622 -81.65468 7490 ft 174 kts 34°
2026-05-05 18:58 24.76581 -81.64645 7490 ft 175 kts 34°
2026-05-05 18:58 24.77543 -81.63819 7490 ft 176 kts 34°
2026-05-05 18:58 24.78508 -81.62991 7487 ft 176 kts 34°
2026-05-05 18:58 24.79476 -81.62160 7487 ft 177 kts 34°
2026-05-05 18:59 24.80431 -81.61340 7489 ft 177 kts 34°
2026-05-05 18:59 24.81402 -81.60507 7488 ft 177 kts 34°
2026-05-05 18:59 24.82378 -81.59669 7488 ft 178 kts 34°
2026-05-05 18:59 24.83354 -81.58830 7487 ft 178 kts 34°
2026-05-05 19:00 24.84331 -81.57991 7490 ft 178 kts 34°
2026-05-05 19:00 24.85309 -81.57151 7487 ft 178 kts 34°
2026-05-05 19:00 24.86286 -81.56311 7485 ft 178 kts 34°
2026-05-05 19:00 24.87264 -81.55470 7484 ft 178 kts 34°
2026-05-05 19:01 24.88241 -81.54630 7486 ft 178 kts 34°
2026-05-05 19:01 24.89206 -81.53800 7485 ft 178 kts 34°
2026-05-05 19:01 24.90181 -81.52962 7492 ft 178 kts 34°
2026-05-05 19:01 24.91157 -81.52121 7493 ft 178 kts 34°
2026-05-05 19:02 24.92134 -81.51281 7487 ft 178 kts 34°
2026-05-05 19:02 24.93110 -81.50441 7490 ft 178 kts 34°
2026-05-05 19:02 24.94085 -81.49602 7491 ft 178 kts 34°
2026-05-05 19:02 24.95060 -81.48762 7494 ft 178 kts 34°
2026-05-05 19:03 24.96035 -81.47922 7498 ft 178 kts 34°
2026-05-05 19:03 24.97010 -81.47083 7490 ft 178 kts 34°
2026-05-05 19:03 24.97984 -81.46244 7493 ft 178 kts 34°
2026-05-05 19:03 24.98944 -81.45417 7491 ft 178 kts 34°
2026-05-05 19:04 24.99918 -81.44577 7491 ft 178 kts 34°
2026-05-05 19:04 25.00892 -81.43737 7491 ft 178 kts 34°
2026-05-05 19:04 25.01865 -81.42898 7490 ft 178 kts 34°
2026-05-05 19:04 25.02838 -81.42059 7489 ft 178 kts 34°
2026-05-05 19:05 25.03811 -81.41219 7491 ft 178 kts 34°
2026-05-05 19:05 25.04784 -81.40380 7491 ft 178 kts 34°
2026-05-05 19:05 25.05757 -81.39541 7490 ft 177 kts 34°
2026-05-05 19:05 25.06728 -81.38702 7490 ft 177 kts 34°
2026-05-05 19:06 25.07685 -81.37876 7489 ft 177 kts 34°
2026-05-05 19:06 25.08657 -81.37037 7487 ft 177 kts 34°
2026-05-05 19:06 25.09627 -81.36199 7488 ft 177 kts 34°
2026-05-05 19:06 25.10598 -81.35360 7488 ft 177 kts 34°
2026-05-05 19:07 25.11569 -81.34521 7487 ft 177 kts 34°
2026-05-05 19:07 25.12540 -81.33682 7489 ft 177 kts 34°
2026-05-05 19:07 25.13515 -81.32852 7486 ft 175 kts 31°
2026-05-05 19:07 25.14632 -81.32421 7478 ft 169 kts
2026-05-05 19:08 25.15789 -81.32328 7475 ft 169 kts
2026-05-05 19:08 25.16963 -81.32217 7478 ft 170 kts
2026-05-05 19:08 25.18140 -81.32091 7479 ft 170 kts
2026-05-05 19:08 25.19318 -81.31961 7478 ft 170 kts
2026-05-05 19:09 25.20497 -81.31832 7476 ft 170 kts
2026-05-05 19:09 25.21676 -81.31702 7478 ft 170 kts
2026-05-05 19:09 25.22858 -81.31573 7480 ft 171 kts
2026-05-05 19:09 25.24038 -81.31444 7477 ft 171 kts
2026-05-05 19:10 25.25203 -81.31317 7479 ft 171 kts
2026-05-05 19:10 25.26384 -81.31187 7477 ft 170 kts
2026-05-05 19:10 25.27566 -81.31058 7479 ft 171 kts
2026-05-05 19:10 25.28748 -81.30928 7482 ft 171 kts
2026-05-05 19:11 25.29930 -81.30799 7481 ft 171 kts
2026-05-05 19:11 25.31111 -81.30670 7479 ft 171 kts
2026-05-05 19:11 25.32290 -81.30540 7479 ft 170 kts
2026-05-05 19:11 25.33460 -81.30412 7480 ft 170 kts
2026-05-05 19:12 25.34640 -81.30283 7480 ft 170 kts
2026-05-05 19:12 25.35813 -81.30154 7479 ft 170 kts
2026-05-05 19:12 25.36985 -81.30026 7478 ft 170 kts
2026-05-05 19:12 25.38167 -81.29896 7484 ft 170 kts
2026-05-05 19:13 25.39335 -81.29768 7487 ft 170 kts
2026-05-05 19:13 25.40519 -81.29638 7480 ft 170 kts
2026-05-05 19:13 25.41709 -81.29507 7477 ft 170 kts
2026-05-05 19:13 25.42882 -81.29379 7477 ft 171 kts
2026-05-05 19:14 25.44056 -81.29249 7480 ft 170 kts
2026-05-05 19:14 25.45245 -81.29119 7485 ft 170 kts
2026-05-05 19:14 25.46407 -81.28991 7478 ft 170 kts
2026-05-05 19:14 25.47587 -81.28862 7477 ft 170 kts
2026-05-05 19:15 25.48762 -81.28732 7479 ft 170 kts
2026-05-05 19:15 25.49933 -81.28604 7478 ft 170 kts
2026-05-05 19:15 25.51116 -81.28474 7481 ft 170 kts
2026-05-05 19:15 25.52285 -81.28345 7478 ft 170 kts
2026-05-05 19:16 25.53463 -81.28216 7481 ft 170 kts
2026-05-05 19:16 25.54641 -81.28086 7477 ft 170 kts
2026-05-05 19:16 25.55821 -81.27956 7473 ft 170 kts
2026-05-05 19:16 25.56988 -81.27828 7476 ft 170 kts
2026-05-05 19:17 25.58172 -81.27697 7478 ft 170 kts
2026-05-05 19:17 25.59356 -81.27567 7477 ft 170 kts
2026-05-05 19:17 25.60520 -81.27439 7472 ft 170 kts
2026-05-05 19:17 25.61708 -81.27308 7477 ft 170 kts
2026-05-05 19:18 25.62887 -81.27179 7471 ft 171 kts
2026-05-05 19:18 25.64062 -81.27049 7472 ft 171 kts
2026-05-05 19:18 25.65257 -81.26917 7472 ft 171 kts
2026-05-05 19:18 25.66431 -81.26788 7473 ft 171 kts
2026-05-05 19:19 25.67604 -81.26660 7476 ft 172 kts
2026-05-05 19:19 25.68822 -81.26524 7463 ft 174 kts
2026-05-05 19:19 25.70011 -81.26393 7460 ft 172 kts
2026-05-05 19:19 25.71193 -81.26262 7464 ft 171 kts
2026-05-05 19:20 25.72385 -81.26131 7462 ft 171 kts
2026-05-05 19:20 25.73576 -81.26000 7459 ft 171 kts
2026-05-05 19:20 25.74742 -81.25871 7457 ft 171 kts
2026-05-05 19:20 25.75928 -81.25740 7459 ft 171 kts
2026-05-05 19:21 25.77101 -81.25611 7461 ft 171 kts
2026-05-05 19:21 25.78286 -81.25480 7457 ft 171 kts
2026-05-05 19:21 25.79459 -81.25351 7458 ft 171 kts
2026-05-05 19:21 25.80658 -81.25218 7461 ft 171 kts
2026-05-05 19:22 25.81822 -81.25089 7459 ft 171 kts
2026-05-05 19:22 25.82997 -81.24959 7457 ft 171 kts
2026-05-05 19:22 25.84200 -81.24828 7467 ft 174 kts
2026-05-05 19:22 25.85412 -81.24695 7462 ft 175 kts
2026-05-05 19:23 25.86600 -81.24560 7464 ft 172 kts
2026-05-05 19:23 25.87783 -81.24428 7460 ft 171 kts
2026-05-05 19:23 25.88978 -81.24295 7460 ft 170 kts
2026-05-05 19:23 25.90152 -81.24168 7465 ft 170 kts
2026-05-05 19:24 25.91324 -81.24040 7463 ft 173 kts
2026-05-05 19:24 25.92524 -81.23909 7460 ft 171 kts
2026-05-05 19:24 25.93694 -81.23775 7458 ft 170 kts
2026-05-05 19:24 25.94878 -81.23645 7459 ft 171 kts
2026-05-05 19:25 25.96066 -81.23513 7462 ft 170 kts
2026-05-05 19:25 25.97249 -81.23381 7460 ft 172 kts
2026-05-05 19:25 25.98367 -81.23001 7453 ft 173 kts 26°
2026-05-05 19:25 25.99401 -81.22288 7455 ft 175 kts 30°
2026-05-05 19:26 26.00442 -81.21577 7455 ft 174 kts 28°
2026-05-05 19:26 26.01469 -81.20904 7454 ft 173 kts 28°
2026-05-05 19:26 26.02500 -81.20226 7453 ft 172 kts 28°
2026-05-05 19:26 26.03528 -81.19552 7456 ft 172 kts 28°
2026-05-05 19:27 26.04566 -81.18870 7460 ft 173 kts 28°
2026-05-05 19:27 26.05590 -81.18196 7453 ft 173 kts 28°
2026-05-05 19:27 26.06636 -81.17507 7459 ft 172 kts 28°
2026-05-05 19:27 26.07669 -81.16828 7458 ft 172 kts 28°
2026-05-05 19:28 26.08688 -81.16157 7456 ft 173 kts 28°
2026-05-05 19:28 26.09720 -81.15477 7457 ft 172 kts 28°
2026-05-05 19:28 26.10748 -81.14801 7453 ft 172 kts 28°
2026-05-05 19:28 26.11788 -81.14116 7454 ft 173 kts 28°
2026-05-05 19:29 26.12822 -81.13437 7455 ft 173 kts 28°
2026-05-05 19:29 26.13856 -81.12755 7458 ft 172 kts 28°
2026-05-05 19:29 26.14883 -81.12079 7454 ft 174 kts 28°
2026-05-05 19:29 26.15914 -81.11399 7459 ft 172 kts 28°
2026-05-05 19:30 26.16951 -81.10715 7459 ft 172 kts 28°
2026-05-05 19:30 26.17972 -81.10042 7456 ft 173 kts 28°
2026-05-05 19:30 26.19010 -81.09357 7456 ft 173 kts 28°
2026-05-05 19:30 26.20034 -81.08682 7458 ft 172 kts 28°
2026-05-05 19:31 26.21078 -81.07995 7461 ft 172 kts 28°
2026-05-05 19:31 26.22104 -81.07317 7459 ft 172 kts 28°
2026-05-05 19:31 26.23126 -81.06642 7456 ft 172 kts 28°
2026-05-05 19:31 26.24164 -81.05958 7459 ft 172 kts 28°
2026-05-05 19:32 26.25192 -81.05279 7459 ft 173 kts 28°
2026-05-05 19:32 26.26230 -81.04594 7458 ft 173 kts 28°
2026-05-05 19:32 26.27263 -81.03911 7457 ft 173 kts 29°
2026-05-05 19:32 26.28296 -81.03229 7462 ft 174 kts 28°
2026-05-05 19:33 26.29331 -81.02545 7485 ft 172 kts 28°
2026-05-05 19:33 26.30363 -81.01863 7499 ft 174 kts 28°
2026-05-05 19:33 26.31413 -81.01170 7499 ft 176 kts 29°
2026-05-05 19:33 26.32465 -81.00473 7497 ft 175 kts 28°
2026-05-05 19:34 26.33514 -80.99782 7500 ft 176 kts 29°
2026-05-05 19:34 26.34551 -80.99093 7498 ft 175 kts 29°
2026-05-05 19:34 26.35597 -80.98401 7496 ft 174 kts 28°
2026-05-05 19:35 26.37688 -80.97020 7503 ft 176 kts 29°
2026-05-05 19:35 26.38744 -80.96318 7502 ft 177 kts 29°
2026-05-05 19:35 26.39830 -80.95708 7497 ft 173 kts 13°
2026-05-05 19:35 26.41016 -80.95569 7501 ft 171 kts
2026-05-05 19:36 26.42207 -80.95506 7502 ft 172 kts
2026-05-05 19:36 26.43381 -80.95415 7499 ft 172 kts
2026-05-05 19:36 26.44577 -80.95318 7500 ft 172 kts
2026-05-05 19:36 26.45764 -80.95220 7496 ft 170 kts
2026-05-05 19:37 26.46951 -80.95122 7505 ft 172 kts
2026-05-05 19:37 26.48143 -80.95027 7498 ft 171 kts
2026-05-05 19:37 26.49333 -80.94930 7500 ft 172 kts
2026-05-05 19:37 26.50527 -80.94832 7501 ft 172 kts
2026-05-05 19:38 26.51719 -80.94735 7508 ft 172 kts
2026-05-05 19:38 26.52912 -80.94637 7508 ft 172 kts
2026-05-05 19:38 26.54086 -80.94542 7507 ft 172 kts
2026-05-05 19:38 26.55279 -80.94444 7512 ft 172 kts
2026-05-05 19:39 26.56469 -80.94347 7514 ft 172 kts
2026-05-05 19:39 26.57663 -80.94250 7509 ft 172 kts
2026-05-05 19:39 26.58860 -80.94152 7507 ft 172 kts
2026-05-05 19:39 26.60051 -80.94055 7505 ft 172 kts
2026-05-05 19:40 26.61242 -80.93958 7511 ft 171 kts
2026-05-05 19:40 26.62450 -80.93860 7390 ft 177 kts
2026-05-05 19:40 26.63678 -80.93760 7256 ft 181 kts
2026-05-05 19:40 26.64941 -80.93657 7117 ft 183 kts
2026-05-05 19:41 26.66214 -80.93552 6980 ft 184 kts
2026-05-05 19:41 26.67456 -80.93256 6830 ft 182 kts 11°
2026-05-05 19:41 26.68664 -80.93465 6673 ft 179 kts 328°
2026-05-05 19:41 26.69701 -80.94229 6539 ft 179 kts 326°
2026-05-05 19:42 26.70756 -80.94981 6399 ft 181 kts 326°
2026-05-05 19:42 26.71821 -80.95741 6255 ft 182 kts 326°
2026-05-05 19:42 26.72873 -80.96493 6105 ft 181 kts 327°
2026-05-05 19:42 26.74025 -80.97059 5958 ft 183 kts 341°
2026-05-05 19:43 26.75254 -80.97435 5806 ft 184 kts 344°
2026-05-05 19:43 26.76488 -80.97801 5662 ft 184 kts 344°
2026-05-05 19:43 26.77715 -80.98166 5569 ft 181 kts 344°
2026-05-05 19:43 26.78942 -80.98415 5509 ft 177 kts 354°
2026-05-05 19:44 26.80161 -80.98492 5509 ft 174 kts 356°
2026-05-05 19:44 26.81372 -80.98503 5509 ft 175 kts
2026-05-05 19:44 26.82580 -80.98377 5513 ft 174 kts
2026-05-05 19:44 26.83751 -80.98143 5515 ft 173 kts 10°
2026-05-05 19:45 26.84940 -80.97886 5512 ft 174 kts 10°
2026-05-05 19:45 26.86124 -80.97637 5513 ft 173 kts 10°
2026-05-05 19:45 26.87311 -80.97389 5516 ft 173 kts
2026-05-05 19:45 26.88499 -80.97142 5516 ft 174 kts
2026-05-05 19:46 26.89687 -80.96894 5512 ft 173 kts 10°
2026-05-05 19:46 26.90871 -80.96645 5511 ft 173 kts 10°
2026-05-05 19:46 26.92050 -80.96399 5514 ft 173 kts 10°
2026-05-05 19:46 26.93215 -80.96156 5514 ft 172 kts
2026-05-05 19:47 26.94392 -80.95910 5511 ft 172 kts 10°
2026-05-05 19:47 26.95572 -80.95664 5511 ft 172 kts 10°
2026-05-05 19:47 26.96749 -80.95417 5512 ft 172 kts 10°
2026-05-05 19:47 26.97926 -80.95171 5513 ft 172 kts 10°
2026-05-05 19:48 26.99102 -80.94925 5511 ft 172 kts 10°
2026-05-05 19:48 27.00281 -80.94679 5513 ft 172 kts 10°
2026-05-05 19:48 27.01458 -80.94432 5488 ft 173 kts 10°
2026-05-05 19:48 27.02650 -80.94183 5342 ft 179 kts 10°
2026-05-05 19:49 27.03887 -80.93924 5177 ft 182 kts 11°
2026-05-05 19:49 27.04733 -80.93747 5070 ft 183 kts 11°
2026-05-05 19:49 27.06400 -80.93398 4845 ft 184 kts 11°
2026-05-05 19:49 27.07663 -80.93133 4676 ft 185 kts 11°
2026-05-05 19:50 27.08928 -80.92868 4504 ft 185 kts 11°
2026-05-05 19:50 27.10191 -80.92603 4334 ft 185 kts 11°
2026-05-05 19:50 27.11452 -80.92339 4159 ft 184 kts 12°
2026-05-05 19:50 27.12710 -80.92076 3989 ft 184 kts 12°
2026-05-05 19:51 27.13946 -80.91816 3818 ft 183 kts 12°
2026-05-05 19:51 27.15200 -80.91552 3651 ft 184 kts 12°
2026-05-05 19:51 27.16455 -80.91290 3481 ft 183 kts 12°
2026-05-05 19:51 27.17707 -80.91027 3338 ft 181 kts 13°
2026-05-05 19:52 27.18917 -80.90773 3366 ft 174 kts 13°
2026-05-05 19:52 27.20105 -80.90526 3389 ft 174 kts 13°
2026-05-05 19:52 27.21296 -80.90274 3460 ft 173 kts 12°
2026-05-05 19:52 27.22469 -80.90027 3507 ft 172 kts 12°
2026-05-05 19:53 27.23633 -80.89781 3505 ft 173 kts 13°
2026-05-05 19:53 27.24821 -80.89533 3504 ft 174 kts 12°
2026-05-05 19:53 27.26019 -80.89282 3502 ft 178 kts 13°
2026-05-05 19:53 27.27243 -80.89023 3499 ft 179 kts 13°
2026-05-05 19:54 27.28450 -80.88769 3492 ft 174 kts 13°
2026-05-05 19:54 27.29633 -80.88522 3489 ft 172 kts 12°
2026-05-05 19:54 27.30808 -80.88290 3495 ft 170 kts
2026-05-05 19:54 27.31979 -80.88489 3492 ft 172 kts 343°
2026-05-05 19:55 27.33092 -80.88942 3486 ft 172 kts 342°
2026-05-05 19:55 27.34223 -80.89371 3499 ft 173 kts 344°
2026-05-05 19:55 27.35367 -80.89785 3492 ft 172 kts 345°
2026-05-05 19:55 27.36505 -80.90199 3494 ft 172 kts 345°
2026-05-05 19:56 27.37642 -80.90613 3494 ft 172 kts 344°
2026-05-05 19:56 27.38790 -80.91029 3497 ft 174 kts 344°
2026-05-05 19:56 27.39941 -80.91449 3503 ft 174 kts 344°
2026-05-05 19:56 27.41085 -80.91864 3499 ft 175 kts 344°
2026-05-05 19:57 27.42236 -80.92283 3502 ft 173 kts 345°
2026-05-05 19:57 27.43007 -80.92566 3499 ft 172 kts 344°
2026-05-05 19:57 27.44520 -80.93113 3492 ft 173 kts 345°
2026-05-05 19:57 27.45660 -80.93530 3518 ft 174 kts 344°
2026-05-05 19:58 27.46816 -80.93951 3520 ft 176 kts 344°
2026-05-05 19:58 27.47988 -80.94378 3508 ft 177 kts 343°
2026-05-05 19:58 27.49153 -80.94803 3507 ft 175 kts 344°
2026-05-05 19:58 27.50306 -80.95222 3501 ft 173 kts 344°
2026-05-05 19:59 27.51436 -80.95634 3508 ft 173 kts 345°
2026-05-05 19:59 27.52577 -80.96053 3512 ft 173 kts 344°
2026-05-05 19:59 27.53729 -80.96472 3516 ft 174 kts 344°
2026-05-05 19:59 27.54888 -80.96895 3518 ft 176 kts 344°
2026-05-05 20:00 27.56057 -80.97321 3515 ft 176 kts 345°
2026-05-05 20:00 27.57211 -80.97741 3513 ft 174 kts 344°
2026-05-05 20:00 27.58351 -80.98159 3514 ft 171 kts 344°
2026-05-05 20:00 27.59485 -80.98573 3513 ft 171 kts 344°
2026-05-05 20:01 27.60623 -80.98991 3480 ft 174 kts 344°
2026-05-05 20:01 27.61767 -80.99407 3513 ft 174 kts 344°
2026-05-05 20:01 27.62905 -80.99820 3526 ft 175 kts 344°
2026-05-05 20:01 27.64064 -81.00244 3518 ft 175 kts 344°
2026-05-05 20:02 27.65217 -81.00665 3509 ft 173 kts 344°
2026-05-05 20:02 27.66364 -81.01086 3518 ft 173 kts 344°
2026-05-05 20:02 27.67506 -81.01504 3508 ft 175 kts 344°
2026-05-05 20:02 27.68664 -81.01928 3511 ft 175 kts 344°
2026-05-05 20:03 27.69821 -81.02350 3515 ft 175 kts 345°
2026-05-05 20:03 27.70977 -81.02774 3514 ft 175 kts 344°
2026-05-05 20:03 27.72125 -81.03194 3520 ft 176 kts 343°
2026-05-05 20:03 27.73290 -81.03621 3513 ft 175 kts 344°
2026-05-05 20:04 27.74448 -81.04045 3514 ft 175 kts 343°
2026-05-05 20:04 27.75606 -81.04468 3514 ft 174 kts 344°
2026-05-05 20:04 27.76759 -81.04890 3515 ft 175 kts 343°
2026-05-05 20:04 27.77917 -81.05316 3516 ft 175 kts 344°
2026-05-05 20:05 27.79077 -81.05742 3509 ft 175 kts 344°
2026-05-05 20:05 27.80238 -81.06167 3443 ft 177 kts 343°
2026-05-05 20:05 27.81412 -81.06599 3341 ft 177 kts 344°
2026-05-05 20:05 27.82563 -81.07026 3259 ft 176 kts 342°
2026-05-05 20:06 27.83728 -81.07466 3153 ft 177 kts 344°
2026-05-05 20:06 27.84903 -81.07895 3068 ft 179 kts 344°
2026-05-05 20:06 27.86088 -81.08326 2962 ft 178 kts 344°
2026-05-05 20:06 27.87258 -81.08754 2869 ft 176 kts 344°
2026-05-05 20:07 27.88417 -81.09179 2765 ft 174 kts 344°
2026-05-05 20:07 27.89562 -81.09602 2684 ft 174 kts 344°
2026-05-05 20:07 27.90723 -81.10027 2575 ft 175 kts 343°
2026-05-05 20:07 27.91873 -81.10449 2472 ft 173 kts 343°
2026-05-05 20:08 27.93000 -81.10866 2378 ft 172 kts 344°
2026-05-05 20:08 27.94138 -81.11286 2278 ft 172 kts 345°
2026-05-05 20:08 27.95268 -81.11714 2177 ft 171 kts 344°
2026-05-05 20:08 27.96399 -81.12134 2076 ft 171 kts 343°
2026-05-05 20:09 27.97529 -81.12548 1989 ft 171 kts 344°
2026-05-05 20:09 27.98667 -81.12968 1881 ft 172 kts 343°
2026-05-05 20:09 27.99748 -81.13521 1791 ft 174 kts 325°
2026-05-05 20:09 28.00689 -81.14418 1702 ft 177 kts 325°
2026-05-05 20:10 28.01666 -81.15260 1667 ft 177 kts 325°
2026-05-05 20:10 28.02645 -81.16093 1608 ft 178 kts 324°
2026-05-05 20:10 28.03636 -81.16932 1567 ft 177 kts 324°
2026-05-05 20:10 28.04609 -81.17760 1520 ft 175 kts 325°
2026-05-05 20:11 28.05582 -81.18599 1503 ft 173 kts 325°
2026-05-05 20:11 28.06524 -81.19416 1503 ft 167 kts 324°
2026-05-05 20:11 28.07471 -81.20166 1510 ft 164 kts 327°
2026-05-05 20:11 28.08430 -81.20895 1517 ft 168 kts 328°
2026-05-05 20:12 28.09404 -81.21634 1510 ft 171 kts 328°
2026-05-05 20:12 28.10385 -81.22383 1524 ft 175 kts 328°
2026-05-05 20:12 28.11409 -81.23158 1512 ft 179 kts 328°
2026-05-05 20:12 28.12455 -81.23947 1525 ft 181 kts 329°
2026-05-05 20:13 28.13479 -81.24730 1496 ft 172 kts 327°
2026-05-05 20:13 28.14448 -81.25471 1502 ft 165 kts 328°
2026-05-05 20:13 28.15381 -81.26186 1505 ft 161 kts 328°
2026-05-05 20:13 28.16312 -81.26893 1503 ft 159 kts 328°
2026-05-05 20:14 28.17229 -81.27585 1497 ft 158 kts 329°
2026-05-05 20:14 28.18140 -81.28281 1501 ft 158 kts 329°
2026-05-05 20:14 28.19042 -81.28965 1500 ft 158 kts 328°
2026-05-05 20:14 28.19954 -81.29646 1498 ft 155 kts 328°
2026-05-05 20:15 28.20802 -81.30398 1499 ft 155 kts 318°
2026-05-05 20:15 28.21566 -81.31244 1506 ft 152 kts 316°
2026-05-05 20:15 28.22315 -81.32106 1481 ft 155 kts 314°
2026-05-05 20:15 28.23028 -81.33007 1433 ft 151 kts 313°
2026-05-05 20:16 28.23727 -81.33884 1378 ft 149 kts 313°
2026-05-05 20:16 28.24409 -81.34767 1296 ft 148 kts 311°
2026-05-05 20:16 28.25084 -81.35644 1223 ft 147 kts 312°
2026-05-05 20:16 28.25757 -81.36522 1153 ft 148 kts 311°
2026-05-05 20:17 28.26378 -81.37454 1066 ft 152 kts 304°
2026-05-05 20:17 28.26947 -81.38475 1039 ft 152 kts 302°
2026-05-05 20:17 28.27415 -81.39510 1044 ft 141 kts 294°
2026-05-05 20:17 28.27750 -81.40525 1041 ft 134 kts 288°
2026-05-05 20:18 28.27885 -81.41559 1039 ft 132 kts 274°
2026-05-05 20:18 28.27612 -81.42512 1034 ft 129 kts 236°
2026-05-05 20:18 28.27135 -81.43372 1052 ft 127 kts 236°
2026-05-05 20:18 28.26674 -81.44222 1027 ft 127 kts 239°
2026-05-05 20:19 28.26414 -81.45113 1010 ft 121 kts 277°
2026-05-05 20:19 28.26811 -81.45860 853 ft 108 kts 325°
2026-05-05 20:19 28.27449 -81.46227 731 ft 101 kts
2026-05-05 20:19 28.27949 -81.45755 579 ft 92 kts 60°
2026-05-05 20:20 28.28263 -81.45188 378 ft 80 kts 63°
2026-05-05 20:20 28.28538 -81.44674 203 ft 71 kts 64°
2026-05-05 20:20 28.28777 -81.44241 85 ft 57 kts 60°
2026-05-05 20:20 28.28925 -81.43967 87 ft 24 kts 59°
2026-05-05 20:21 28.29010 -81.43887 87 ft 11 kts 333°
2026-05-05 20:21 28.29066 -81.43942 86 ft 12 kts 269°
2026-05-05 20:21 28.29033 -81.44023 85 ft 11 kts 272°
2026-05-05 20:21 28.29046 -81.44092 85 ft 9 kts 223°
2026-05-05 20:22 28.29018 -81.44098 85 ft 0 kts 154°